{"data":{"norad_id":68694,"epoch":"2026-05-25T04:21:45.705600Z","epoch_age_seconds":63268,"freshness":"FRESH","line1":"1 68694U 26080D   26145.18177900  .00004687  00000+0  30097-3 0  9996","line2":"2 68694  97.6659 220.8179 0020662 132.3444 227.9538 15.08775139  6179","mean_motion":15.08775139,"eccentricity":0.0020662,"inclination_deg":97.6659,"raan_deg":220.8179,"arg_perigee_deg":132.3444,"mean_anomaly_deg":227.9538,"bstar":0.00030097,"rev_number":617,"period_min":95.441657459601,"perigee_km":525.64751608831,"apogee_km":554.23578430238,"semimajor_km":6918.0786501953,"source":"CELESTRAK","updated_at":"2026-05-25T13:38:08.023163Z"}}